• In Portugal
  • List of Countries
  • For 7 days
  • Water Temperature
  • Satellite Maps
  • Weather Map
  • Weather Widgets
  • user-avatar
    Login

    Hourly Weather Ulanova

    Today, 14 November, Wednesday

    Time Temperature Precipitation Wind Pressure Humidity
    00:00 -7°C° 0 mm 5 mps 757 mmHg 43%
    01:00 -7°C° 0 mm 5 mps 756 mmHg 44%
    02:00 -7°C° 0 mm 5 mps 756 mmHg 49%
    03:00 -7°C° 0 mm 5 mps 755 mmHg 50%
    04:00 -7°C° 0 mm 5 mps 755 mmHg 51%
    05:00 -7°C° 0 mm 5 mps 754 mmHg 52%
    06:00 -7°C° 0 mm 5 mps 754 mmHg 52%
    07:00 -7°C° 0 mm 5 mps 753 mmHg 53%
    08:00 -7°C° 0 mm 5 mps 753 mmHg 54%
    09:00 -6°C° 0 mm 5 mps 753 mmHg 54%
    10:00 -5°C° 0 mm 5 mps 752 mmHg 54%
    11:00 -4°C° 0 mm 6 mps 752 mmHg 55%
    12:00 -4°C° 0 mm 5 mps 752 mmHg 57%
    13:00 -4°C° 0 mm 5 mps 751 mmHg 60%
    14:00 -2°C° 0 mm 5 mps 751 mmHg 62%
    15:00 -2°C° 0 mm 5 mps 751 mmHg 64%
    16:00 -4°C° 0 mm 5 mps 751 mmHg 67%
    17:00 -4°C° 0 mm 5 mps 751 mmHg 69%
    18:00 -4°C° 0 mm 5 mps 751 mmHg 68%
    19:00 -4°C° 0 mm 5 mps 751 mmHg 67%
    20:00 -4°C° 0 mm 5 mps 751 mmHg 65%
    21:00 -4°C° 0 mm 5 mps 752 mmHg 64%
    22:00 -3°C° 0 mm 4 mps 752 mmHg 63%
    23:00 -3°C° 0 mm 4 mps 752 mmHg 62%

    Tomorrow, 15 November, Thursday

    Time Temperature Precipitation Wind Pressure Humidity
    00:00 -3°C° 0 mm 4 mps 752 mmHg 64%
    01:00 -3°C° 0 mm 4 mps 753 mmHg 66%
    02:00 -4°C° 0 mm 3 mps 753 mmHg 67%
    03:00 -4°C° 0 mm 3 mps 753 mmHg 70%
    04:00 -4°C° 0 mm 3 mps 753 mmHg 72%
    05:00 -4°C° 0 mm 3 mps 754 mmHg 74%
    06:00 -4°C° 0 mm 3 mps 754 mmHg 76%
    07:00 -4°C° 0 mm 3 mps 755 mmHg 78%
    08:00 -4°C° 0 mm 3 mps 755 mmHg 79%
    09:00 -2°C° 0 mm 3 mps 755 mmHg 76%
    10:00 -2°C° 0 mm 3 mps 756 mmHg 74%
    11:00 -1°C° 0 mm 3 mps 756 mmHg 71%
    12:00 -1°C° 0 mm 3 mps 756 mmHg 71%
    13:00 +1°C° 0 mm 2 mps 756 mmHg 71%
    14:00 +1°C° 0 mm 2 mps 757 mmHg 70%
    15:00 -1°C° 0 mm 2 mps 757 mmHg 73%
    16:00 -2°C° 0 mm 2 mps 757 mmHg 75%
    17:00 -3°C° 0 mm 2 mps 758 mmHg 78%
    18:00 -3°C° 0 mm 2 mps 758 mmHg 76%
    19:00 -3°C° 0 mm 2 mps 758 mmHg 75%
    20:00 -3°C° 0 mm 2 mps 759 mmHg 73%
    21:00 -3°C° 0 mm 2 mps 759 mmHg 71%
    22:00 -3°C° 0 mm 2 mps 759 mmHg 69%
    23:00 -3°C° 0 mm 2 mps 759 mmHg 67%

    Day after tomorrow, 16 November, Friday

    Time Temperature Precipitation Wind Pressure Humidity
    00:00 -1°C° 0 mm 1 mps 760 mmHg 66%
    01:00 -1°C° 0 mm 1 mps 760 mmHg 64%
    02:00 -1°C° 0 mm 1 mps 760 mmHg 63%
    03:00 -2°C° 0 mm 1 mps 760 mmHg 62%
    04:00 -2°C° 0 mm 1 mps 761 mmHg 61%
    05:00 -2°C° 0 mm 1 mps 761 mmHg 60%
    06:00 -4°C° 0 mm 2 mps 761 mmHg 58%
    07:00 -4°C° 0 mm 2 mps 761 mmHg 56%
    08:00 -4°C° 0 mm 2 mps 762 mmHg 54%
    09:00 -3°C° 0 mm 2 mps 762 mmHg 48%
    10:00 -2°C° 0 mm 2 mps 762 mmHg 42%
    11:00 -1°C° 0 mm 2 mps 762 mmHg 36%
    12:00 -1°C° 0 mm 2 mps 762 mmHg 36%
    13:00 +1°C° 0 mm 1 mps 762 mmHg 35%
    14:00 +2°C° 0 mm 1 mps 762 mmHg 35%
    15:00 +1°C° 0 mm 1 mps 762 mmHg 36%
    16:00 -2°C° 0 mm 2 mps 762 mmHg 38%
    17:00 -3°C° 0 mm 2 mps 762 mmHg 40%
    18:00 -3°C° 0 mm 2 mps 762 mmHg 39%
    19:00 -1°C° 0 mm 1 mps 762 mmHg 39%
    20:00 -1°C° 0 mm 1 mps 762 mmHg 38%
    21:00 -2°C° 0 mm 1 mps 762 mmHg 38%
    22:00 -2°C° 0 mm 1 mps 762 mmHg 37%
    23:00 -2°C° 0 mm 1 mps 762 mmHg 36%

    17 November, Saturday

    Time Temperature Precipitation Wind Pressure Humidity
    00:00 -2°C° 0 mm 1 mps 762 mmHg 36%
    01:00 -2°C° 0 mm 1 mps 762 mmHg 36%
    02:00 -2°C° 0 mm 1 mps 761 mmHg 36%
    03:00 -2°C° 0 mm 1 mps 761 mmHg 36%
    04:00 -2°C° 0 mm 1 mps 761 mmHg 36%
    05:00 -2°C° 0 mm 1 mps 761 mmHg 36%
    06:00 -2°C° 0 mm 1 mps 760 mmHg 36%
    07:00 -2°C° 0 mm 1 mps 760 mmHg 36%
    08:00 -2°C° 0 mm 1 mps 760 mmHg 36%
    09:00 -1°C° 0 mm 1 mps 760 mmHg 34%
    10:00 0°C° 0 mm 1 mps 759 mmHg 32%
    11:00 +1°C° 0 mm 1 mps 759 mmHg 30%
    12:00 +1°C° 0 mm 1 mps 758 mmHg 31%
    13:00 +1°C° 0 mm 1 mps 757 mmHg 33%
    14:00 +1°C° 0 mm 2 mps 757 mmHg 35%
    15:00 -1°C° 0 mm 2 mps 756 mmHg 38%
    16:00 -2°C° 0 mm 2 mps 756 mmHg 42%
    17:00 -2°C° 0 mm 3 mps 755 mmHg 45%
    18:00 -2°C° 0 mm 3 mps 754 mmHg 50%
    19:00 -2°C° 0 mm 3 mps 754 mmHg 54%
    20:00 -2°C° 0 mm 3 mps 753 mmHg 58%
    21:00 -3°C° 0.1 mm 4 mps 752 mmHg 64%
    22:00 -3°C° 0.1 mm 4 mps 751 mmHg 70%
    23:00 -2°C° 0.1 mm 4 mps 751 mmHg 76%

    18 November, Sunday

    Time Temperature Precipitation Wind Pressure Humidity
    00:00 -2°C° 0.3 mm 4 mps 750 mmHg 81%
    01:00 -2°C° 0.3 mm 4 mps 749 mmHg 85%
    02:00 -2°C° 0.3 mm 4 mps 748 mmHg 90%
    03:00 -2°C° 0.6 mm 4 mps 747 mmHg 91%
    04:00 -2°C° 0.6 mm 4 mps 746 mmHg 93%
    05:00 -2°C° 0.6 mm 4 mps 745 mmHg 94%
    06:00 -1°C° 0.2 mm 3 mps 745 mmHg 94%
    07:00 -1°C° 0.2 mm 3 mps 745 mmHg 95%
    08:00 -1°C° 0.2 mm 3 mps 744 mmHg 95%
    09:00 +1°C° 0 mm 2 mps 744 mmHg 95%
    10:00 +1°C° 0 mm 2 mps 744 mmHg 94%
    11:00 +1°C° 0 mm 2 mps 744 mmHg 94%
    12:00 +1°C° 0 mm 2 mps 743 mmHg 94%
    13:00 +2°C° 0 mm 1 mps 743 mmHg 95%
    14:00 +2°C° 0 mm 1 mps 743 mmHg 95%
    15:00 +2°C° 0 mm 1 mps 743 mmHg 95%
    16:00 +1°C° 0 mm 0 mps 743 mmHg 96%
    17:00 0°C° 0 mm 0 mps 743 mmHg 96%
    18:00 0°C° 0 mm 0 mps 744 mmHg 96%
    19:00 +1°C° 0 mm 1 mps 744 mmHg 96%
    20:00 +1°C° 0 mm 1 mps 744 mmHg 96%
    21:00 +1°C° 0 mm 1 mps 744 mmHg 96%
    22:00 -1°C° 0 mm 2 mps 745 mmHg 96%
    23:00 -1°C° 0 mm 2 mps 745 mmHg 96%

    19 November, Monday

    Time Temperature Precipitation Wind Pressure Humidity
    00:00 -1°C° 0.1 mm 2 mps 745 mmHg 95%
    01:00 -1°C° 0.1 mm 2 mps 746 mmHg 95%
    02:00 -1°C° 0.1 mm 3 mps 746 mmHg 95%
    03:00 -1°C° 0.2 mm 3 mps 747 mmHg 94%
    04:00 -3°C° 0.2 mm 4 mps 747 mmHg 93%
    05:00 -3°C° 0.2 mm 4 mps 748 mmHg 92%
    06:00 -4°C° 0.2 mm 5 mps 749 mmHg 87%
    07:00 -4°C° 0.2 mm 5 mps 749 mmHg 83%
    08:00 -5°C° 0.2 mm 5 mps 750 mmHg 79%
    09:00 -4°C° 0 mm 5 mps 751 mmHg 75%
    10:00 -4°C° 0 mm 5 mps 752 mmHg 71%
    11:00 -4°C° 0 mm 5 mps 753 mmHg 67%
    12:00 -4°C° 0 mm 5 mps 753 mmHg 70%
    13:00 -2°C° 0 mm 5 mps 754 mmHg 72%
    14:00 -2°C° 0 mm 5 mps 754 mmHg 75%
    15:00 -2°C° 0.1 mm 4 mps 755 mmHg 79%
    16:00 -3°C° 0.1 mm 4 mps 755 mmHg 82%
    17:00 -3°C° 0.1 mm 4 mps 756 mmHg 86%
    18:00 -3°C° 0 mm 4 mps 756 mmHg 84%
    19:00 -3°C° 0 mm 4 mps 756 mmHg 81%
    20:00 -3°C° 0 mm 4 mps 757 mmHg 78%
    21:00 -4°C° 0 mm 4 mps 757 mmHg 78%
    22:00 -4°C° 0 mm 3 mps 757 mmHg 77%
    23:00 -5°C° 0 mm 3 mps 758 mmHg 77%
    Show more